Location: Dehesa de la Cepeda
(40.6574°N, 4.3013°W)
Time: 10:35:59
(UTC+00:00)

Transit 2A Rocket - Pass Details

Date: 09 August 2021
Orbit: 586 x 917 km, 66.7° (Epoch: 24 September)

Event Time Altitude Azimuth Distance (km) Brightness Sun altitude
Rises 20:12:59 0° 337° (NNW) 3,300 9.2 -9.4°
Reaches altitude 10° 20:15:34 10° 347° (NNW) 2,419 8.2 -9.8°
Maximum altitude 20:20:39 34° 52° (NE) 1,398 6.2 -10.6°
Enters shadow 20:25:04 14° 110° (ESE) 2,265 6.8 -11.3°
Drops below altitude 10° 20:26:00 10° 115° (ESE) 2,563 - -11.5°
Sets 20:28:49 0° 125° (SE) 3,524 - -11.9°
